Myrtle Beach, SC

10:34 PM EDT on May 27, 2018 (GMT -0400)
Myrtle Beach International

Weather History for KMYR - October, 2013

Change the Weather History Date:

Tuesday, October 22, 2013

  Actual Average Record
Temperature  
Mean Temperature 62 °F -  
Max Temperature 66 °F 70 °F 84 °F (2005)
Min Temperature 57 °F 51 °F 34 °F (1952)
Degree Days  
Heating Degree Days 4    
Growing Degree Days 12 (Base 50)    
Moisture  
Dew Point 55 °F    
Average Humidity 82    
Maximum Humidity 94    
Minimum Humidity 64    
Precipitation  
Precipitation 0.05 in - - ()
Sea Level Pressure  
Sea Level Pressure 29.97 in    
Wind  
Wind Speed 1 mph (NW)    
Max Wind Speed 7 mph    
Max Gust Speed -    
Visibility 10 miles    
Events Rain    
Averages and records for this station are not official NWS values.
T = Trace of Precipitation, MM = Missing Value Source: NWS Daily Summary

Daily Weather History Graph

Daily Weather History Graph

Search for Another Location

Airport or City:

Astronomy

Oct. 22, 2013 Rise Set
Actual Time 7:26 AM EDT 6:33 PM EDT
Civil Twilight 7:01 AM EDT 6:58 PM EDT
Nautical Twilight 6:31 AM EDT 7:27 PM EDT
Astronomical Twilight 6:02 AM EDT 7:56 PM EDT
Moon 9:19 PM EDT (10/22) 10:45 AM EDT (10/22)
Length of Visible Light 11h 57m
Length of Day
11h 07m
Waning Gibbous, 87% of the Moon is Illuminated
Oct 22
Waning Gibbous
Oct 26
Last Quarter
Nov 3
New
Nov 10
First Quarter
Nov 17
Full

Hourly Weather History & Observations

Time (EDT) Temp. Dew Point Humidity Pressure Visibility Wind Dir Wind Speed Gust Speed Precip Events Conditions
12:15 AM 60.8 °F 53.6 °F 77% 30.04 in 10.0 mi Calm Calm - N/A   Scattered Clouds
12:35 AM 60.8 °F 53.6 °F 77% 30.03 in 10.0 mi Calm Calm - N/A   Partly Cloudy
12:55 AM 59.0 °F 53.6 °F 82% 30.04 in 10.0 mi Calm Calm - N/A   Mostly Cloudy
1:15 AM 59.0 °F 53.6 °F 82% 30.03 in 10.0 mi Calm Calm - N/A   Mostly Cloudy
1:35 AM 59.0 °F 55.4 °F 88% 30.03 in 10.0 mi Calm Calm - N/A   Scattered Clouds
1:55 AM 59.0 °F 53.6 °F 82% 30.04 in 10.0 mi Calm Calm - N/A   Mostly Cloudy
2:15 AM 59.0 °F 53.6 °F 82% 30.03 in 10.0 mi Calm Calm - N/A   Partly Cloudy
2:35 AM 59.0 °F 53.6 °F 82% 30.03 in 10.0 mi Calm Calm - N/A   Clear
2:55 AM 57.2 °F 53.6 °F 88% 30.03 in 10.0 mi Calm Calm - N/A   Clear
3:15 AM 57.2 °F 53.6 °F 88% 30.03 in 10.0 mi Calm Calm - N/A   Scattered Clouds
3:35 AM 59.0 °F 53.6 °F 82% 30.02 in 10.0 mi Calm Calm - N/A   Mostly Cloudy
3:55 AM 59.0 °F 53.6 °F 82% 30.02 in 10.0 mi Calm Calm - N/A   Scattered Clouds
4:15 AM 59.0 °F 53.6 °F 82% 30.01 in 10.0 mi Calm Calm - N/A   Scattered Clouds
4:35 AM 59.0 °F 53.6 °F 82% 30.00 in 10.0 mi Calm Calm - N/A   Clear
4:55 AM 59.0 °F 53.6 °F 82% 30.00 in 10.0 mi Calm Calm - N/A   Partly Cloudy
5:15 AM 59.0 °F 55.4 °F 88% 29.99 in 10.0 mi Calm Calm - N/A   Partly Cloudy
5:35 AM 59.0 °F 55.4 °F 88% 29.99 in 10.0 mi Calm Calm - N/A   Clear
5:50 AM 59.0 °F 53.6 °F 82% 29.98 in 10.0 mi Calm Calm - N/A   Clear
6:45 AM 59.0 °F 53.6 °F 82% 29.98 in 10.0 mi Calm Calm - N/A   Clear
7:45 AM 57.2 °F 55.4 °F 94% 29.98 in 10.0 mi Calm Calm - N/A   Clear
8:50 AM 60.8 °F 55.4 °F 82% 29.98 in 10.0 mi SSW 5.8 mph - N/A   Clear
9:50 AM 62.6 °F 53.6 °F 72% 30.00 in 10.0 mi Calm Calm - N/A   Clear
10:45 AM 62.6 °F 53.6 °F 72% 29.98 in 10.0 mi Calm Calm - N/A   Partly Cloudy
11:45 AM 64.4 °F 53.6 °F 68% 29.96 in 10.0 mi North 6.9 mph - N/A   Scattered Clouds
12:45 PM 66.2 °F 53.6 °F 64% 29.95 in 10.0 mi NNW 6.9 mph - N/A   Clear
1:50 PM 66.2 °F 55.4 °F 68% 29.95 in 10.0 mi NNW 5.8 mph - N/A   Overcast
2:45 PM 66.2 °F 55.4 °F 68% 29.92 in 10.0 mi WNW 5.8 mph - N/A   Clear
3:45 PM 66.2 °F 55.4 °F 68% 29.90 in 10.0 mi WNW 5.8 mph - N/A   Scattered Clouds
4:45 PM 64.4 °F 60.8 °F 88% 29.90 in 10.0 mi Calm Calm - N/A   Scattered Clouds
5:45 PM 62.6 °F 59.0 °F 88% 29.88 in 8.0 mi SE 4.6 mph - N/A Rain Light Rain
6:50 PM 62.6 °F 60.8 °F 94% 29.91 in 8.0 mi Calm Calm - N/A   Scattered Clouds
7:45 PM 62.6 °F 59.0 °F 88% 29.89 in 8.0 mi Calm Calm - N/A   Mostly Cloudy
8:45 PM 62.6 °F 60.8 °F 94% 29.88 in 8.0 mi Calm Calm - N/A   Mostly Cloudy
11:15 PM 62.6 °F 55.4 °F 77% 29.88 in 10.0 mi Calm Calm - 0.01 in   Overcast
11:35 PM 60.8 °F 57.2 °F 88% 29.87 in 5.0 mi Calm Calm - 0.02 in   Overcast
11:55 PM 60.8 °F 57.2 °F 88% 29.87 in 5.0 mi Calm Calm - 0.05 in   Overcast